Time,TemperatureF,DewpointF,PressureIn,WindDirection,WindDirectionDegrees,WindSpeedMPH,WindSpeedGustMPH,Humidity,HourlyPrecipIn,Conditions,Clouds,dailyrainin,SoftwareType,DateUTC
2013-01-10 00:00:00,76.5,72.7,29.67,NNW,340,0.0,1.0,88,0.00,FEW,,0.00,WeatherDisplay:10.37,2013-01-09 14:00:00,
2013-01-10 00:10:00,76.3,72.5,29.66,NNW,340,0.0,1.0,88,0.00,FEW,,0.00,WeatherDisplay:10.37,2013-01-09 14:10:00,
2013-01-10 00:15:00,76.3,72.5,29.66,NNW,340,0.0,1.0,88,0.00,FEW,,0.00,WeatherDisplay:10.37,2013-01-09 14:15:00,
2013-01-10 00:20:00,76.3,72.5,29.66,NNW,339,1.0,2.0,88,0.00,FEW,,0.00,WeatherDisplay:10.37,2013-01-09 14:20:00,
2013-01-10 00:25:00,76.2,72.4,29.66,NNW,339,0.0,1.0,88,0.00,FEW,,0.00,WeatherDisplay:10.37,2013-01-09 14:25:00,
2013-01-10 00:35:00,76.1,72.3,29.66,NNW,339,0.0,0.0,88,0.00,SCT,,0.00,WeatherDisplay:10.37,2013-01-09 14:35:00,
2013-01-10 00:40:00,76.0,72.2,29.66,NNW,339,0.0,0.0,88,0.00,SCT,,0.00,WeatherDisplay:10.37,2013-01-09 14:40:00,
2013-01-10 00:45:00,75.9,72.1,29.66,NNW,339,0.0,0.0,88,0.00,SCT,,0.00,WeatherDisplay:10.37,2013-01-09 14:45:00,
2013-01-10 00:50:00,75.7,72.2,29.66,NNW,339,0.0,0.0,89,0.00,SCT,,0.00,WeatherDisplay:10.37,2013-01-09 14:50:00,
2013-01-10 01:00:00,75.6,72.1,29.65,NNW,339,0.0,0.0,89,0.00,SCT,,0.00,WeatherDisplay:10.37,2013-01-09 15:00:00,
2013-01-10 01:05:00,75.5,72.0,29.65,NNW,339,0.0,0.0,89,0.00,SCT,,0.00,WeatherDisplay:10.37,2013-01-09 15:05:00,
2013-01-10 01:10:00,75.3,71.9,29.65,NNW,339,0.0,0.0,89,0.00,SCT,,0.00,WeatherDisplay:10.37,2013-01-09 15:10:00,
2013-01-10 01:15:00,75.2,71.7,29.65,NNW,339,0.0,1.0,89,0.00,SCT,,0.00,WeatherDisplay:10.37,2013-01-09 15:15:00,
2013-01-10 01:20:00,75.0,71.5,29.65,NNW,339,0.0,1.0,89,0.00,SCT,,0.00,WeatherDisplay:10.37,2013-01-09 15:20:00,
2013-01-10 01:25:00,74.9,71.4,29.64,NNW,339,0.0,1.0,89,0.00,SCT,,0.00,WeatherDisplay:10.37,2013-01-09 15:25:00,
2013-01-10 01:30:00,74.8,71.7,29.64,NNW,339,0.0,1.0,90,0.00,SCT,,0.00,WeatherDisplay:10.37,2013-01-09 15:30:00,
2013-01-10 01:35:00,74.7,71.2,29.64,NNW,339,0.0,0.0,89,0.00,SCT,,0.00,WeatherDisplay:10.37,2013-01-09 15:35:00,
2013-01-10 01:40:00,74.7,71.5,29.64,NNW,339,0.0,0.0,90,0.00,SCT,,0.00,WeatherDisplay:10.37,2013-01-09 15:40:00,
2013-01-10 01:45:00,74.6,71.5,29.64,NNW,339,0.0,0.0,90,0.00,SCT,,0.00,WeatherDisplay:10.37,2013-01-09 15:45:00,
2013-01-10 01:50:00,74.5,71.4,29.64,NNW,339,0.0,1.0,90,0.00,SCT,,0.00,WeatherDisplay:10.37,2013-01-09 15:50:00,
2013-01-10 01:55:00,74.5,71.4,29.64,NNW,339,0.0,1.0,90,0.00,SCT,,0.00,WeatherDisplay:10.37,2013-01-09 15:55:00,
2013-01-10 02:00:00,74.4,71.3,29.63,NNW,339,0.0,0.0,90,0.00,SCT,,0.00,WeatherDisplay:10.37,2013-01-09 16:00:00,
2013-01-10 02:10:00,74.3,71.2,29.63,NNW,339,0.0,2.0,90,0.00,,,0.00,WeatherDisplay:10.37,2013-01-09 16:10:00,
2013-01-10 02:15:00,74.2,71.0,29.63,NNW,339,0.0,0.0,90,0.00,,,0.00,WeatherDisplay:10.37,2013-01-09 16:15:00,
2013-01-10 02:20:00,74.0,70.9,29.63,NNW,339,0.0,0.0,90,0.00,,,0.00,WeatherDisplay:10.37,2013-01-09 16:20:00,
2013-01-10 02:25:00,73.9,70.8,29.63,NNW,339,0.0,1.0,90,0.00,,,0.00,WeatherDisplay:10.37,2013-01-09 16:25:00,
2013-01-10 02:30:00,73.9,70.8,29.63,NNW,339,0.0,0.0,90,0.00,,,0.00,WeatherDisplay:10.37,2013-01-09 16:30:00,
2013-01-10 02:35:00,73.9,70.8,29.63,NNW,339,0.0,0.0,90,0.00,,,0.00,WeatherDisplay:10.37,2013-01-09 16:35:00,
2013-01-10 02:40:00,73.8,70.7,29.63,NNW,339,0.0,0.0,90,0.00,,,0.00,WeatherDisplay:10.37,2013-01-09 16:40:00,
2013-01-10 02:45:00,73.8,70.6,29.63,NNW,340,0.0,0.0,90,0.00,,,0.00,WeatherDisplay:10.37,2013-01-09 16:45:00,
2013-01-10 02:50:00,73.7,70.6,29.63,NNW,340,0.0,0.0,90,0.00,,,0.00,WeatherDisplay:10.37,2013-01-09 16:50:00,
2013-01-10 02:55:00,73.5,70.7,29.63,NNW,340,0.0,0.0,91,0.00,,,0.00,WeatherDisplay:10.37,2013-01-09 16:55:00,
2013-01-10 03:00:00,73.4,70.7,29.63,NNW,339,0.0,0.0,91,0.00,,,0.00,WeatherDisplay:10.37,2013-01-09 17:00:00,
2013-01-10 03:05:00,73.3,70.5,29.63,NNW,339,0.0,0.0,91,0.00,,,0.00,WeatherDisplay:10.37,2013-01-09 17:05:00,
2013-01-10 03:15:00,73.0,70.3,29.64,NNW,339,0.0,0.0,91,0.00,,,0.00,WeatherDisplay:10.37,2013-01-09 17:15:00,
2013-01-10 03:20:00,73.0,70.2,29.64,NNW,339,0.0,0.0,91,0.00,,,0.00,WeatherDisplay:10.37,2013-01-09 17:20:00,
2013-01-10 03:30:00,73.0,70.2,29.64,ESE,112,0.0,17.0,91,0.00,,,0.00,WeatherDisplay:10.37,2013-01-09 17:30:00,
2013-01-10 03:35:00,73.0,70.2,29.64,ESE,112,0.0,0.0,91,0.00,,,0.00,WeatherDisplay:10.37,2013-01-09 17:35:00,
2013-01-10 03:40:00,72.9,70.1,29.63,ESE,112,0.0,0.0,91,0.00,,,0.00,WeatherDisplay:10.37,2013-01-09 17:40:00,
2013-01-10 03:45:00,72.9,70.1,29.63,ESE,112,0.0,0.0,91,0.00,,,0.00,WeatherDisplay:10.37,2013-01-09 17:45:00,
2013-01-10 03:50:00,72.7,69.9,29.63,ESE,112,0.0,0.0,91,0.00,,,0.00,WeatherDisplay:10.37,2013-01-09 17:50:00,
2013-01-10 03:55:00,72.7,69.9,29.64,ESE,112,0.0,0.0,91,0.00,,,0.00,WeatherDisplay:10.37,2013-01-09 17:55:00,
2013-01-10 04:00:00,72.6,69.8,29.64,ESE,112,0.0,0.0,91,0.00,,,0.00,WeatherDisplay:10.37,2013-01-09 18:00:00,
2013-01-10 04:05:00,72.5,69.7,29.64,ESE,112,0.0,0.0,91,0.00,,,0.00,WeatherDisplay:10.37,2013-01-09 18:05:00,
2013-01-10 04:10:00,72.5,69.7,29.64,ESE,112,0.0,0.0,91,0.00,,,0.00,WeatherDisplay:10.37,2013-01-09 18:10:00,
2013-01-10 04:15:00,72.5,69.7,29.64,ESE,112,0.0,0.0,91,0.00,,,0.00,WeatherDisplay:10.37,2013-01-09 18:15:00,
2013-01-10 04:20:00,72.5,69.7,29.64,ESE,112,0.0,0.0,91,0.00,,,0.00,WeatherDisplay:10.37,2013-01-09 18:20:00,
2013-01-10 04:25:00,72.4,69.6,29.65,ESE,112,0.0,1.0,91,0.00,,,0.00,WeatherDisplay:10.37,2013-01-09 18:25:00,
2013-01-10 04:30:00,72.4,69.6,29.65,ESE,112,0.0,1.0,91,0.00,,,0.00,WeatherDisplay:10.37,2013-01-09 18:30:00,
2013-01-10 04:35:00,72.3,69.8,29.65,ESE,112,0.0,3.0,92,0.00,,,0.00,WeatherDisplay:10.37,2013-01-09 18:35:00,
2013-01-10 04:40:00,72.1,69.3,29.65,ESE,107,1.0,3.0,91,0.00,,,0.00,WeatherDisplay:10.37,2013-01-09 18:40:00,
2013-01-10 04:45:00,72.0,69.2,29.66,NNE,20,0.0,3.0,91,0.00,,,0.00,WeatherDisplay:10.37,2013-01-09 18:45:00,
2013-01-10 04:50:00,72.0,69.2,29.66,NNW,338,0.0,3.0,91,0.00,,,0.00,WeatherDisplay:10.37,2013-01-09 18:50:00,
2013-01-10 04:55:00,72.0,69.2,29.66,NNW,338,0.0,2.0,91,0.00,,,0.00,WeatherDisplay:10.37,2013-01-09 18:55:00,
2013-01-10 05:00:00,72.1,69.0,29.66,NNW,338,0.0,1.0,90,0.00,,,0.00,WeatherDisplay:10.37,2013-01-09 19:00:00,
2013-01-10 05:05:00,72.1,69.0,29.66,NNW,338,0.0,1.0,90,0.00,,,0.00,WeatherDisplay:10.37,2013-01-09 19:05:00,
2013-01-10 05:10:00,72.1,69.0,29.67,NNW,336,1.0,3.0,90,0.00,,,0.00,WeatherDisplay:10.37,2013-01-09 19:10:00,
2013-01-10 05:15:00,72.3,69.2,29.67,NW,324,0.0,3.0,90,0.00,,,0.00,WeatherDisplay:10.37,2013-01-09 19:15:00,
2013-01-10 05:20:00,72.4,69.0,29.67,NW,315,1.0,4.0,89,0.00,,,0.00,WeatherDisplay:10.37,2013-01-09 19:20:00,
2013-01-10 05:25:00,72.7,68.9,29.67,NW,315,1.0,4.0,88,0.00,,,0.00,WeatherDisplay:10.37,2013-01-09 19:25:00,
2013-01-10 05:30:00,72.9,69.1,29.67,NW,315,0.0,3.0,88,0.00,,,0.00,WeatherDisplay:10.37,2013-01-09 19:30:00,
2013-01-10 05:35:00,73.0,69.2,29.67,NW,315,0.0,2.0,88,0.00,,,0.00,WeatherDisplay:10.37,2013-01-09 19:35:00,
2013-01-10 05:40:00,73.0,69.2,29.68,NW,315,0.0,1.0,88,0.00,,,0.00,WeatherDisplay:10.37,2013-01-09 19:40:00,
2013-01-10 05:45:00,72.9,69.1,29.68,NW,315,0.0,1.0,88,0.00,,,0.00,WeatherDisplay:10.37,2013-01-09 19:45:00,
2013-01-10 05:50:00,72.8,69.0,29.68,NW,315,0.0,1.0,88,0.00,,,0.00,WeatherDisplay:10.37,2013-01-09 19:50:00,
2013-01-10 05:55:00,72.7,68.9,29.68,NW,315,0.0,1.0,88,0.00,,,0.00,WeatherDisplay:10.37,2013-01-09 19:55:00,
2013-01-10 06:00:00,72.7,68.9,29.69,NW,315,0.0,1.0,88,0.00,,,0.00,WeatherDisplay:10.37,2013-01-09 20:00:00,
2013-01-10 06:05:00,72.6,69.2,29.69,NW,315,0.0,1.0,89,0.00,,,0.00,WeatherDisplay:10.37,2013-01-09 20:05:00,
2013-01-10 06:10:00,72.6,69.2,29.69,NW,315,0.0,2.0,89,0.00,,,0.00,WeatherDisplay:10.37,2013-01-09 20:10:00,
2013-01-10 06:15:00,72.8,69.7,29.69,NW,315,0.0,2.0,90,0.00,,,0.00,WeatherDisplay:10.37,2013-01-09 20:15:00,
2013-01-10 06:20:00,73.2,70.1,29.69,NW,315,0.0,2.0,90,0.00,,,0.00,WeatherDisplay:10.37,2013-01-09 20:20:00,
2013-01-10 06:25:00,73.4,70.3,29.69,NW,315,0.0,2.0,90,0.00,,,0.00,WeatherDisplay:10.37,2013-01-09 20:25:00,
2013-01-10 06:30:00,73.5,70.4,29.69,NW,315,0.0,0.0,90,0.00,,,0.00,WeatherDisplay:10.37,2013-01-09 20:30:00,
2013-01-10 06:35:00,73.6,70.5,29.70,NW,315,0.0,0.0,90,0.00,,,0.00,WeatherDisplay:10.37,2013-01-09 20:35:00,
2013-01-10 06:40:00,73.8,70.7,29.70,NW,315,0.0,2.0,90,0.00,,,0.00,WeatherDisplay:10.37,2013-01-09 20:40:00,
2013-01-10 06:45:00,73.9,70.8,29.70,NW,315,0.0,2.0,90,0.00,,,0.00,WeatherDisplay:10.37,2013-01-09 20:45:00,
2013-01-10 06:50:00,74.0,70.9,29.70,NW,315,0.0,1.0,90,0.00,,,0.00,WeatherDisplay:10.37,2013-01-09 20:50:00,
2013-01-10 06:55:00,74.3,71.2,29.70,NW,315,0.0,1.0,90,0.00,,,0.00,WeatherDisplay:10.37,2013-01-09 20:55:00,
2013-01-10 07:00:00,74.6,71.1,29.71,NW,315,0.0,1.0,89,0.00,,,0.00,WeatherDisplay:10.37,2013-01-09 21:00:00,
2013-01-10 07:05:00,75.1,71.6,29.71,NW,315,0.0,1.0,89,0.00,,,0.00,WeatherDisplay:10.37,2013-01-09 21:05:00,
2013-01-10 07:10:00,75.6,72.1,29.70,NW,315,0.0,2.0,89,0.00,,,0.00,WeatherDisplay:10.37,2013-01-09 21:10:00,
2013-01-10 07:15:00,75.9,72.1,29.71,NW,315,0.0,2.0,88,0.00,,,0.00,WeatherDisplay:10.37,2013-01-09 21:15:00,
2013-01-10 07:20:00,76.2,72.0,29.71,NW,315,0.0,0.0,87,0.00,,,0.00,WeatherDisplay:10.37,2013-01-09 21:20:00,
2013-01-10 07:25:00,76.6,72.4,29.71,NW,315,0.0,0.0,87,0.00,,,0.00,WeatherDisplay:10.37,2013-01-09 21:25:00,
2013-01-10 07:30:00,77.0,72.5,29.71,NW,315,0.0,1.0,86,0.00,,,0.00,WeatherDisplay:10.37,2013-01-09 21:30:00,
2013-01-10 07:35:00,77.6,73.1,29.71,NW,315,0.0,1.0,86,0.00,,,0.00,WeatherDisplay:10.37,2013-01-09 21:35:00,
2013-01-10 07:40:00,78.3,73.4,29.71,NW,315,0.0,1.0,85,0.00,,,0.00,WeatherDisplay:10.37,2013-01-09 21:40:00,
2013-01-10 07:45:00,78.8,73.2,29.71,NW,315,0.0,1.0,83,0.00,,,0.00,WeatherDisplay:10.37,2013-01-09 21:45:00,
2013-01-10 07:50:00,79.4,73.8,29.71,NW,315,0.0,1.0,83,0.00,,,0.00,WeatherDisplay:10.37,2013-01-09 21:50:00,
2013-01-10 07:55:00,80.4,74.4,29.71,NW,315,0.0,1.0,82,0.00,,,0.00,WeatherDisplay:10.37,2013-01-09 21:55:00,
2013-01-10 08:00:00,81.2,74.8,29.70,NW,315,0.0,1.0,81,0.00,,,0.00,WeatherDisplay:10.37,2013-01-09 22:00:00,
2013-01-10 08:05:00,81.8,74.3,29.71,NW,315,0.0,1.0,78,0.00,,,0.00,WeatherDisplay:10.37,2013-01-09 22:05:00,
2013-01-10 08:10:00,82.5,74.6,29.71,NW,315,0.0,2.0,77,0.00,,,0.00,WeatherDisplay:10.37,2013-01-09 22:10:00,
2013-01-10 08:15:00,83.1,74.7,29.71,NW,315,1.0,3.0,76,0.00,,,0.00,WeatherDisplay:10.37,2013-01-09 22:15:00,
2013-01-10 08:20:00,83.2,74.8,29.71,NW,315,1.0,3.0,76,0.00,,,0.00,WeatherDisplay:10.37,2013-01-09 22:20:00,
2013-01-10 08:25:00,83.5,74.3,29.72,NW,315,0.0,2.0,74,0.00,,,0.00,WeatherDisplay:10.37,2013-01-09 22:25:00,
2013-01-10 08:30:00,83.9,74.7,29.71,NW,315,0.0,2.0,74,0.00,,,0.00,WeatherDisplay:10.37,2013-01-09 22:30:00,
2013-01-10 08:35:00,84.7,76.3,29.72,NW,315,0.0,2.0,76,0.00,,,0.00,WeatherDisplay:10.37,2013-01-09 22:35:00,
2013-01-10 08:40:00,85.6,76.8,29.72,NW,315,1.0,2.0,75,0.00,,,0.00,WeatherDisplay:10.37,2013-01-09 22:40:00,
2013-01-10 08:45:00,85.7,75.6,29.72,NW,315,1.0,3.0,72,0.00,,,0.00,WeatherDisplay:10.37,2013-01-09 22:45:00,
2013-01-10 08:50:00,86.0,76.7,29.72,NW,315,0.0,3.0,74,0.00,,,0.00,WeatherDisplay:10.37,2013-01-09 22:50:00,
2013-01-10 08:55:00,86.1,76.0,29.72,NW,321,1.0,3.0,72,0.00,,,0.00,WeatherDisplay:10.37,2013-01-09 22:55:00,
2013-01-10 09:00:00,86.5,77.2,29.72,North,356,0.0,3.0,74,0.00,,,0.00,WeatherDisplay:10.37,2013-01-09 23:00:00,
2013-01-10 09:05:00,87.2,77.5,29.71,NNE,22,0.0,2.0,73,0.00,,,0.00,WeatherDisplay:10.37,2013-01-09 23:05:00,
2013-01-10 09:10:00,87.4,76.8,29.71,NNE,22,1.0,3.0,71,0.00,,,0.00,WeatherDisplay:10.37,2013-01-09 23:10:00,
2013-01-10 09:15:00,87.0,76.9,29.71,NNE,22,1.0,3.0,72,0.00,,,0.00,WeatherDisplay:10.37,2013-01-09 23:15:00,
2013-01-10 09:20:00,87.2,77.1,29.71,NNE,22,0.0,3.0,72,0.00,,,0.00,WeatherDisplay:10.37,2013-01-09 23:20:00,
2013-01-10 09:25:00,87.3,77.6,29.71,NNE,22,1.0,2.0,73,0.00,,,0.00,WeatherDisplay:10.37,2013-01-09 23:25:00,
2013-01-10 09:30:00,87.9,78.6,29.72,NNE,22,0.0,2.0,74,0.00,,,0.00,WeatherDisplay:10.37,2013-01-09 23:30:00,
2013-01-10 09:35:00,88.3,78.1,29.72,NNE,22,1.0,3.0,72,0.00,,,0.00,WeatherDisplay:10.37,2013-01-09 23:35:00,
2013-01-10 09:40:00,88.4,77.4,29.71,NNE,26,1.0,4.0,70,0.00,,,0.00,WeatherDisplay:10.37,2013-01-09 23:40:00,
2013-01-10 09:45:00,87.9,77.7,29.71,NE,56,2.0,5.0,72,0.00,,,0.00,WeatherDisplay:10.37,2013-01-09 23:45:00,
2013-01-10 09:50:00,87.5,78.2,29.70,East,85,2.0,5.0,74,0.00,,,0.00,WeatherDisplay:10.37,2013-01-09 23:50:00,
2013-01-10 09:55:00,87.0,77.7,29.70,East,90,2.0,5.0,74,0.00,,,0.00,WeatherDisplay:10.37,2013-01-09 23:55:00,
2013-01-10 10:00:00,86.8,78.3,29.70,East,90,1.0,5.0,76,0.00,,,0.00,WeatherDisplay:10.37,2013-01-10 00:00:00,
2013-01-10 10:05:00,87.9,79.0,29.70,East,90,0.0,5.0,75,0.00,,,0.00,WeatherDisplay:10.37,2013-01-10 00:05:00,
2013-01-10 10:10:00,89.0,78.8,29.70,East,90,0.0,2.0,72,0.00,,,0.00,WeatherDisplay:10.37,2013-01-10 00:10:00,
2013-01-10 10:15:00,89.8,79.1,29.70,East,90,0.0,2.0,71,0.00,,,0.00,WeatherDisplay:10.37,2013-01-10 00:15:00,
2013-01-10 10:20:00,90.4,79.3,29.70,East,90,0.0,2.0,70,0.00,,,0.00,WeatherDisplay:10.37,2013-01-10 00:20:00,
2013-01-10 10:25:00,90.9,79.3,29.69,East,90,0.0,2.0,69,0.00,,,0.00,WeatherDisplay:10.37,2013-01-10 00:25:00,
2013-01-10 10:30:00,91.2,79.6,29.69,East,90,0.0,2.0,69,0.00,,,0.00,WeatherDisplay:10.37,2013-01-10 00:30:00,
2013-01-10 10:35:00,91.6,78.6,29.69,East,90,0.0,3.0,66,0.00,,,0.00,WeatherDisplay:10.37,2013-01-10 00:35:00,
2013-01-10 10:40:00,91.6,77.7,29.69,East,90,0.0,3.0,64,0.00,,,0.00,WeatherDisplay:10.37,2013-01-10 00:40:00,
2013-01-10 10:45:00,91.5,79.4,29.69,East,90,0.0,2.0,68,0.00,,,0.00,WeatherDisplay:10.37,2013-01-10 00:45:00,
2013-01-10 10:50:00,91.5,78.5,29.69,East,90,0.0,2.0,66,0.00,,,0.00,WeatherDisplay:10.37,2013-01-10 00:50:00,
2013-01-10 10:55:00,91.7,78.3,29.69,East,90,0.0,2.0,65,0.00,,,0.00,WeatherDisplay:10.37,2013-01-10 00:55:00,
2013-01-10 11:00:00,91.8,78.4,29.69,East,90,0.0,3.0,65,0.00,,,0.00,WeatherDisplay:10.37,2013-01-10 01:00:00,
2013-01-10 11:05:00,91.6,78.2,29.69,East,88,1.0,3.0,65,0.00,,,0.00,WeatherDisplay:10.37,2013-01-10 01:05:00,
2013-01-10 11:10:00,91.3,77.4,29.69,ENE,75,1.0,4.0,64,0.00,,,0.00,WeatherDisplay:10.37,2013-01-10 01:10:00,
2013-01-10 11:15:00,90.8,76.9,29.69,NE,53,2.0,4.0,64,0.00,,,0.00,WeatherDisplay:10.37,2013-01-10 01:15:00,
2013-01-10 11:20:00,90.2,77.3,29.69,NE,45,1.0,4.0,66,0.00,,,0.00,WeatherDisplay:10.37,2013-01-10 01:20:00,
2013-01-10 11:25:00,90.2,78.6,29.69,NE,45,1.0,4.0,69,0.00,,,0.00,WeatherDisplay:10.37,2013-01-10 01:25:00,
2013-01-10 11:30:00,90.0,77.6,29.69,NE,45,1.0,4.0,67,0.00,,,0.00,WeatherDisplay:10.37,2013-01-10 01:30:00,
2013-01-10 11:35:00,89.5,76.6,29.69,NE,45,3.0,5.0,66,0.00,,,0.00,WeatherDisplay:10.37,2013-01-10 01:35:00,
2013-01-10 11:40:00,88.8,77.3,29.69,NE,45,3.0,5.0,69,0.00,,,0.00,WeatherDisplay:10.37,2013-01-10 01:40:00,
2013-01-10 11:45:00,88.3,76.8,29.68,NE,45,3.0,5.0,69,0.00,,,0.00,WeatherDisplay:10.37,2013-01-10 01:45:00,
2013-01-10 11:50:00,87.8,76.4,29.68,NE,45,3.0,7.0,69,0.00,,,0.00,WeatherDisplay:10.37,2013-01-10 01:50:00,
2013-01-10 11:55:00,87.5,76.9,29.68,NE,45,3.0,7.0,71,0.00,,,0.00,WeatherDisplay:10.37,2013-01-10 01:55:00,
2013-01-10 12:00:00,87.4,76.8,29.68,NE,45,3.0,11.0,71,0.00,,,0.00,WeatherDisplay:10.37,2013-01-10 02:00:00,
2013-01-10 12:05:00,87.3,77.2,29.68,NE,45,3.0,11.0,72,0.00,,,0.00,WeatherDisplay:10.37,2013-01-10 02:05:00,
2013-01-10 12:10:00,87.5,76.9,29.68,NE,45,3.0,7.0,71,0.00,,,0.00,WeatherDisplay:10.37,2013-01-10 02:10:00,
2013-01-10 12:15:00,87.8,76.4,29.68,NE,45,3.0,7.0,69,0.00,,,0.00,WeatherDisplay:10.37,2013-01-10 02:15:00,
2013-01-10 12:20:00,87.9,77.3,29.68,NE,45,3.0,7.0,71,0.00,,,0.00,WeatherDisplay:10.37,2013-01-10 02:20:00,
2013-01-10 12:25:00,87.9,78.6,29.67,NE,45,3.0,10.0,74,0.00,,,0.00,WeatherDisplay:10.37,2013-01-10 02:25:00,
2013-01-10 12:30:00,87.5,77.8,29.67,NE,45,5.0,10.0,73,0.00,,,0.00,WeatherDisplay:10.37,2013-01-10 02:30:00,
2013-01-10 12:35:00,87.2,77.5,29.67,NE,45,5.0,10.0,73,0.00,,,0.00,WeatherDisplay:10.37,2013-01-10 02:35:00,
2013-01-10 12:40:00,87.3,77.2,29.67,NE,45,3.0,10.0,72,0.00,,,0.00,WeatherDisplay:10.37,2013-01-10 02:40:00,
2013-01-10 12:45:00,87.4,78.5,29.67,NE,45,5.0,8.0,75,0.00,,,0.00,WeatherDisplay:10.37,2013-01-10 02:45:00,
2013-01-10 12:50:00,87.6,77.9,29.66,NE,45,3.0,8.0,73,0.00,,,0.00,WeatherDisplay:10.37,2013-01-10 02:50:00,
2013-01-10 12:55:00,87.7,77.1,29.66,NE,45,3.0,7.0,71,0.00,,,0.00,WeatherDisplay:10.37,2013-01-10 02:55:00,
2013-01-10 13:00:00,88.2,77.2,29.66,NE,45,3.0,7.0,70,0.00,,,0.00,WeatherDisplay:10.37,2013-01-10 03:00:00,
2013-01-10 13:05:00,88.4,77.8,29.66,NE,45,3.0,7.0,71,0.00,,,0.00,WeatherDisplay:10.37,2013-01-10 03:05:00,
2013-01-10 13:10:00,88.9,78.7,29.66,NE,45,2.0,7.0,72,0.00,,,0.00,WeatherDisplay:10.37,2013-01-10 03:10:00,
2013-01-10 13:15:00,89.9,78.4,29.66,NE,45,1.0,5.0,69,0.00,,,0.00,WeatherDisplay:10.37,2013-01-10 03:15:00,
2013-01-10 13:20:00,90.6,79.0,29.66,NE,45,1.0,4.0,69,0.00,,,0.00,WeatherDisplay:10.37,2013-01-10 03:20:00,
2013-01-10 13:25:00,91.0,78.5,29.65,NE,45,1.0,4.0,67,0.00,,,0.00,WeatherDisplay:10.37,2013-01-10 03:25:00,
2013-01-10 13:30:00,91.2,79.2,29.65,NE,45,2.0,4.0,68,0.00,,,0.00,WeatherDisplay:10.37,2013-01-10 03:30:00,
2013-01-10 13:35:00,91.5,78.5,29.65,NE,45,1.0,4.0,66,0.00,,,0.00,WeatherDisplay:10.37,2013-01-10 03:35:00,
2013-01-10 13:40:00,91.3,79.3,29.65,NE,45,2.0,4.0,68,0.00,,,0.00,WeatherDisplay:10.37,2013-01-10 03:40:00,
2013-01-10 13:45:00,91.4,79.3,29.65,NE,45,1.0,4.0,68,0.00,,,0.00,WeatherDisplay:10.37,2013-01-10 03:45:00,
2013-01-10 13:50:00,91.7,80.1,29.65,NE,45,1.0,4.0,69,0.00,,,0.00,WeatherDisplay:10.37,2013-01-10 03:50:00,
2013-01-10 13:55:00,91.8,80.2,29.65,NE,45,1.0,4.0,69,0.00,,,0.00,WeatherDisplay:10.37,2013-01-10 03:55:00,
2013-01-10 14:00:00,91.9,78.9,29.64,NE,45,1.0,4.0,66,0.00,,,0.00,WeatherDisplay:10.37,2013-01-10 04:00:00,
2013-01-10 14:05:00,91.8,79.7,29.64,NE,45,1.0,4.0,68,0.00,,,0.00,WeatherDisplay:10.37,2013-01-10 04:05:00,
2013-01-10 14:10:00,91.6,80.0,29.64,NE,45,2.0,4.0,69,0.00,,,0.00,WeatherDisplay:10.37,2013-01-10 04:10:00,
2013-01-10 14:15:00,91.3,79.7,29.63,NE,45,2.0,4.0,69,0.00,,,0.00,WeatherDisplay:10.37,2013-01-10 04:15:00,
2013-01-10 14:20:00,91.3,79.7,29.63,NE,45,1.0,4.0,69,0.00,,,0.00,WeatherDisplay:10.37,2013-01-10 04:20:00,
2013-01-10 14:25:00,91.1,79.1,29.64,NE,45,2.0,4.0,68,0.00,,,0.00,WeatherDisplay:10.37,2013-01-10 04:25:00,
2013-01-10 14:30:00,91.4,80.2,29.64,NE,45,1.0,4.0,70,0.00,,,0.00,WeatherDisplay:10.37,2013-01-10 04:30:00,
2013-01-10 14:35:00,91.8,81.5,29.63,NE,45,1.0,4.0,72,0.00,,,0.00,WeatherDisplay:10.37,2013-01-10 04:35:00,
2013-01-10 14:40:00,92.0,80.8,29.63,NE,47,1.0,3.0,70,0.00,,,0.00,WeatherDisplay:10.37,2013-01-10 04:40:00,
2013-01-10 14:45:00,92.0,81.2,29.63,ENE,59,0.0,2.0,71,0.00,,,0.00,WeatherDisplay:10.37,2013-01-10 04:45:00,
2013-01-10 14:50:00,92.0,80.4,29.63,ENE,68,0.0,3.0,69,0.00,,,0.00,WeatherDisplay:10.37,2013-01-10 04:50:00,
2013-01-10 14:55:00,92.0,80.4,29.62,ENE,66,1.0,3.0,69,0.00,,,0.00,WeatherDisplay:10.37,2013-01-10 04:55:00,
2013-01-10 15:00:00,92.1,80.9,29.62,NE,54,1.0,3.0,70,0.00,,,0.00,WeatherDisplay:10.37,2013-01-10 05:00:00,
2013-01-10 15:05:00,92.0,80.8,29.62,NE,45,0.0,3.0,70,0.00,,,0.00,WeatherDisplay:10.37,2013-01-10 05:05:00,
2013-01-10 15:10:00,92.1,80.9,29.62,NE,45,0.0,2.0,70,0.00,,,0.00,WeatherDisplay:10.37,2013-01-10 05:10:00,
2013-01-10 15:15:00,92.0,80.4,29.62,NE,47,1.0,3.0,69,0.00,,,0.00,WeatherDisplay:10.37,2013-01-10 05:15:00,
2013-01-10 15:20:00,91.8,81.0,29.62,ENE,59,0.0,3.0,71,0.00,,,0.00,WeatherDisplay:10.37,2013-01-10 05:20:00,
2013-01-10 15:25:00,91.5,80.8,29.62,ENE,68,1.0,3.0,71,0.00,,,0.00,WeatherDisplay:10.37,2013-01-10 05:25:00,
2013-01-10 15:30:00,91.3,80.6,29.62,ENE,66,1.0,4.0,71,0.00,,,0.00,WeatherDisplay:10.37,2013-01-10 05:30:00,
2013-01-10 15:35:00,91.3,80.1,29.61,NE,54,1.0,4.0,70,0.00,,,0.00,WeatherDisplay:10.37,2013-01-10 05:35:00,
2013-01-10 15:40:00,91.2,80.5,29.61,NE,45,1.0,3.0,71,0.00,,,0.00,WeatherDisplay:10.37,2013-01-10 05:40:00,
2013-01-10 15:45:00,91.3,80.1,29.61,NE,45,0.0,4.0,70,0.00,,,0.00,WeatherDisplay:10.37,2013-01-10 05:45:00,
2013-01-10 15:50:00,91.2,80.0,29.61,NE,45,1.0,4.0,70,0.00,,,0.00,WeatherDisplay:10.37,2013-01-10 05:50:00,
2013-01-10 15:55:00,90.7,79.1,29.61,NE,45,1.0,4.0,69,0.00,,,0.00,WeatherDisplay:10.37,2013-01-10 05:55:00,
2013-01-10 16:00:00,90.7,79.6,29.61,NE,45,0.0,4.0,70,0.00,,,0.00,WeatherDisplay:10.37,2013-01-10 06:00:00,
2013-01-10 16:05:00,90.6,79.0,29.61,NE,45,0.0,3.0,69,0.00,,,0.00,WeatherDisplay:10.37,2013-01-10 06:05:00,
2013-01-10 16:10:00,90.6,79.5,29.61,NE,45,0.0,3.0,70,0.00,,,0.00,WeatherDisplay:10.37,2013-01-10 06:10:00,
2013-01-10 16:15:00,90.5,79.4,29.61,NE,45,1.0,3.0,70,0.00,,,0.00,WeatherDisplay:10.37,2013-01-10 06:15:00,
2013-01-10 16:20:00,90.3,78.3,29.61,NE,45,1.0,4.0,68,0.00,,,0.00,WeatherDisplay:10.37,2013-01-10 06:20:00,
2013-01-10 16:25:00,89.7,78.6,29.61,NE,45,1.0,4.0,70,0.00,,,0.00,WeatherDisplay:10.37,2013-01-10 06:25:00,
2013-01-10 16:30:00,89.1,78.5,29.60,NE,45,1.0,5.0,71,0.00,,,0.00,WeatherDisplay:10.37,2013-01-10 06:30:00,
2013-01-10 16:35:00,88.4,78.2,29.60,NE,45,2.0,5.0,72,0.00,,,0.00,WeatherDisplay:10.37,2013-01-10 06:35:00,
2013-01-10 16:40:00,88.2,78.9,29.60,NE,45,1.0,4.0,74,0.00,,,0.00,WeatherDisplay:10.37,2013-01-10 06:40:00,
2013-01-10 16:45:00,88.0,78.3,29.60,NE,45,1.0,3.0,73,0.00,,,0.00,WeatherDisplay:10.37,2013-01-10 06:45:00,
2013-01-10 16:50:00,87.9,78.6,29.60,NE,45,1.0,4.0,74,0.00,,,0.00,WeatherDisplay:10.37,2013-01-10 06:50:00,
2013-01-10 16:55:00,87.8,78.1,29.60,NE,45,1.0,4.0,73,0.00,,,0.00,WeatherDisplay:10.37,2013-01-10 06:55:00,
2013-01-10 17:00:00,88.1,79.2,29.60,NE,45,0.0,3.0,75,0.00,,,0.00,WeatherDisplay:10.37,2013-01-10 07:00:00,
2013-01-10 17:05:00,87.8,78.5,29.60,NE,45,0.0,2.0,74,0.00,,,0.00,WeatherDisplay:10.37,2013-01-10 07:05:00,
2013-01-10 17:10:00,87.8,78.9,29.60,NE,45,0.0,2.0,75,0.00,,,0.00,WeatherDisplay:10.37,2013-01-10 07:10:00,
2013-01-10 17:15:00,87.9,79.4,29.60,NE,45,0.0,2.0,76,0.00,,,0.00,WeatherDisplay:10.37,2013-01-10 07:15:00,
2013-01-10 17:20:00,87.9,79.0,29.60,NE,45,0.0,2.0,75,0.00,,,0.00,WeatherDisplay:10.37,2013-01-10 07:20:00,
2013-01-10 17:25:00,88.0,79.5,29.61,NE,45,0.0,2.0,76,0.00,,,0.00,WeatherDisplay:10.37,2013-01-10 07:25:00,
2013-01-10 17:30:00,87.8,78.9,29.61,NE,45,0.0,4.0,75,0.00,,,0.00,WeatherDisplay:10.37,2013-01-10 07:30:00,
2013-01-10 17:35:00,87.6,78.7,29.61,NE,45,0.0,4.0,75,0.00,,,0.00,WeatherDisplay:10.37,2013-01-10 07:35:00,
2013-01-10 17:40:00,87.5,78.6,29.61,NE,45,0.0,1.0,75,0.00,,,0.00,WeatherDisplay:10.37,2013-01-10 07:40:00,
2013-01-10 17:45:00,87.3,78.4,29.61,NE,45,0.0,2.0,75,0.00,,,0.00,WeatherDisplay:10.37,2013-01-10 07:45:00,
2013-01-10 17:50:00,87.5,79.0,29.62,NE,45,0.0,2.0,76,0.00,,,0.00,WeatherDisplay:10.37,2013-01-10 07:50:00,
2013-01-10 17:55:00,87.6,79.1,29.62,NE,45,0.0,1.0,76,0.00,,,0.00,WeatherDisplay:10.37,2013-01-10 07:55:00,
2013-01-10 18:00:00,87.6,79.5,29.62,NE,45,0.0,1.0,77,0.00,,,0.00,WeatherDisplay:10.37,2013-01-10 08:00:00,
2013-01-10 18:05:00,87.7,79.6,29.63,NE,45,0.0,1.0,77,0.00,,,0.00,WeatherDisplay:10.37,2013-01-10 08:05:00,
2013-01-10 18:10:00,87.5,79.4,29.64,NE,45,0.0,3.0,77,0.00,,,0.00,WeatherDisplay:10.37,2013-01-10 08:10:00,
2013-01-10 18:15:00,87.3,79.2,29.63,NE,45,0.0,3.0,77,0.00,,,0.00,WeatherDisplay:10.37,2013-01-10 08:15:00,
2013-01-10 18:20:00,87.1,79.4,29.63,NE,45,0.0,1.0,78,0.00,,,0.00,WeatherDisplay:10.37,2013-01-10 08:20:00,
2013-01-10 18:25:00,86.9,79.2,29.64,NE,45,0.0,3.0,78,0.00,,,0.00,WeatherDisplay:10.37,2013-01-10 08:25:00,
2013-01-10 18:30:00,86.6,79.3,29.64,NE,45,0.0,3.0,79,0.00,,,0.00,WeatherDisplay:10.37,2013-01-10 08:30:00,
2013-01-10 18:35:00,86.3,79.0,29.64,NE,45,0.0,3.0,79,0.00,,,0.00,WeatherDisplay:10.37,2013-01-10 08:35:00,
2013-01-10 18:40:00,86.1,79.2,29.65,NE,45,0.0,3.0,80,0.00,,,0.00,WeatherDisplay:10.37,2013-01-10 08:40:00,
2013-01-10 18:45:00,85.7,78.8,29.66,NE,45,0.0,2.0,80,0.00,,,0.00,WeatherDisplay:10.37,2013-01-10 08:45:00,
2013-01-10 18:50:00,85.5,79.0,29.66,NE,45,0.0,1.0,81,0.00,,,0.00,WeatherDisplay:10.37,2013-01-10 08:50:00,
2013-01-10 18:55:00,85.3,79.2,29.67,NE,45,0.0,1.0,82,0.00,,,0.00,WeatherDisplay:10.37,2013-01-10 08:55:00,
2013-01-10 19:00:00,85.1,79.0,29.66,NE,45,0.0,5.0,82,0.00,,,0.00,WeatherDisplay:10.37,2013-01-10 09:00:00,
2013-01-10 19:05:00,85.0,78.9,29.66,NE,45,0.0,5.0,82,0.00,,,0.00,WeatherDisplay:10.37,2013-01-10 09:05:00,
2013-01-10 19:10:00,84.8,78.7,29.66,NE,45,0.0,1.0,82,0.00,,,0.00,WeatherDisplay:10.37,2013-01-10 09:10:00,
2013-01-10 19:15:00,84.7,79.0,29.67,NE,45,0.0,1.0,83,0.00,,,0.00,WeatherDisplay:10.37,2013-01-10 09:15:00,
2013-01-10 19:20:00,84.6,78.9,29.67,NE,45,0.0,1.0,83,0.00,,,0.00,WeatherDisplay:10.37,2013-01-10 09:20:00,
2013-01-10 19:25:00,84.5,78.8,29.67,NE,45,0.0,1.0,83,0.00,,,0.00,WeatherDisplay:10.37,2013-01-10 09:25:00,
2013-01-10 19:30:00,84.4,78.7,29.67,NE,45,0.0,1.0,83,0.00,,,0.00,WeatherDisplay:10.37,2013-01-10 09:30:00,
2013-01-10 19:35:00,84.3,78.6,29.67,NE,45,0.0,3.0,83,0.00,,,0.00,WeatherDisplay:10.37,2013-01-10 09:35:00,
2013-01-10 19:40:00,84.3,78.9,29.68,NE,45,0.0,3.0,84,0.00,,,0.00,WeatherDisplay:10.37,2013-01-10 09:40:00,
2013-01-10 19:45:00,84.2,78.8,29.68,NE,45,0.0,2.0,84,0.00,,,0.00,WeatherDisplay:10.37,2013-01-10 09:45:00,
2013-01-10 19:50:00,84.1,78.4,29.69,NE,49,1.0,5.0,83,0.00,,,0.00,WeatherDisplay:10.37,2013-01-10 09:50:00,
2013-01-10 19:55:00,84.2,78.8,29.69,ENE,72,1.0,5.0,84,0.00,,,0.00,WeatherDisplay:10.37,2013-01-10 09:55:00,
2013-01-10 20:00:00,84.2,78.8,29.69,East,90,1.0,5.0,84,0.00,,,0.00,WeatherDisplay:10.37,2013-01-10 10:00:00,
2013-01-10 20:05:00,84.2,78.8,29.70,East,90,1.0,5.0,84,0.00,,,0.00,WeatherDisplay:10.37,2013-01-10 10:05:00,
2013-01-10 20:10:00,84.2,78.8,29.70,East,90,2.0,5.0,84,0.00,,,0.00,WeatherDisplay:10.37,2013-01-10 10:10:00,
2013-01-10 20:15:00,84.2,78.8,29.70,East,90,3.0,5.0,84,0.00,,,0.00,WeatherDisplay:10.37,2013-01-10 10:15:00,
2013-01-10 20:20:00,84.2,78.8,29.70,East,91,1.0,5.0,84,0.00,,,0.00,WeatherDisplay:10.37,2013-01-10 10:20:00,
2013-01-10 20:25:00,84.2,78.8,29.71,East,97,1.0,5.0,84,0.00,,,0.00,WeatherDisplay:10.37,2013-01-10 10:25:00,
2013-01-10 20:30:00,84.1,78.4,29.71,ESE,112,0.0,3.0,83,0.00,,,0.00,WeatherDisplay:10.37,2013-01-10 10:30:00,
2013-01-10 20:35:00,84.1,78.4,29.72,ESE,112,1.0,4.0,83,0.00,,,0.00,WeatherDisplay:10.37,2013-01-10 10:35:00,
2013-01-10 20:40:00,84.2,78.8,29.72,ESE,112,3.0,6.0,84,0.00,,,0.00,WeatherDisplay:10.37,2013-01-10 10:40:00,
2013-01-10 20:45:00,84.2,78.8,29.72,ESE,112,2.0,6.0,84,0.00,,,0.00,WeatherDisplay:10.37,2013-01-10 10:45:00,
2013-01-10 20:50:00,84.1,78.7,29.72,ESE,112,2.0,6.0,84,0.00,,,0.00,WeatherDisplay:10.37,2013-01-10 10:50:00,
2013-01-10 20:55:00,84.1,78.7,29.73,ESE,112,2.0,6.0,84,0.00,,,0.00,WeatherDisplay:10.37,2013-01-10 10:55:00,
2013-01-10 21:00:00,84.2,78.8,29.73,ESE,112,0.0,6.0,84,0.00,,,0.00,WeatherDisplay:10.37,2013-01-10 11:00:00,
2013-01-10 21:05:00,84.2,78.8,29.73,ESE,112,2.0,5.0,84,0.00,,,0.00,WeatherDisplay:10.37,2013-01-10 11:05:00,
2013-01-10 21:10:00,84.2,78.8,29.73,ESE,112,1.0,5.0,84,0.00,,,0.00,WeatherDisplay:10.37,2013-01-10 11:10:00,
2013-01-10 21:15:00,84.1,78.7,29.73,ESE,112,2.0,5.0,84,0.00,,,0.00,WeatherDisplay:10.37,2013-01-10 11:15:00,
2013-01-10 21:20:00,84.0,78.3,29.73,ESE,112,3.0,9.0,83,0.00,,,0.00,WeatherDisplay:10.37,2013-01-10 11:20:00,
2013-01-10 21:25:00,83.9,78.5,29.73,ESE,112,3.0,9.0,84,0.00,,,0.00,WeatherDisplay:10.37,2013-01-10 11:25:00,
2013-01-10 21:30:00,83.9,78.5,29.73,ESE,112,2.0,7.0,84,0.00,,,0.00,WeatherDisplay:10.37,2013-01-10 11:30:00,
2013-01-10 21:35:00,83.9,78.5,29.73,ESE,112,3.0,6.0,84,0.00,,,0.00,WeatherDisplay:10.37,2013-01-10 11:35:00,
2013-01-10 21:40:00,83.8,78.1,29.73,ESE,112,2.0,6.0,83,0.00,,,0.00,WeatherDisplay:10.37,2013-01-10 11:40:00,
2013-01-10 21:45:00,83.8,78.1,29.73,ESE,112,3.0,6.0,83,0.00,,,0.00,WeatherDisplay:10.37,2013-01-10 11:45:00,
2013-01-10 21:50:00,83.7,78.0,29.73,ESE,112,1.0,6.0,83,0.00,,,0.00,WeatherDisplay:10.37,2013-01-10 11:50:00,
2013-01-10 21:55:00,83.7,78.0,29.73,ESE,112,3.0,6.0,83,0.00,,,0.00,WeatherDisplay:10.37,2013-01-10 11:55:00,
2013-01-10 22:00:00,83.6,77.9,29.73,ESE,112,2.0,6.0,83,0.00,,,0.00,WeatherDisplay:10.37,2013-01-10 12:00:00,
2013-01-10 22:05:00,83.6,78.2,29.73,ESE,112,2.0,7.0,84,0.00,,,0.00,WeatherDisplay:10.37,2013-01-10 12:05:00,
2013-01-10 22:10:00,83.5,77.8,29.73,ESE,112,2.0,7.0,83,0.00,,,0.00,WeatherDisplay:10.37,2013-01-10 12:10:00,
2013-01-10 22:15:00,83.5,78.2,29.74,ESE,112,2.0,6.0,84,0.00,,,0.00,WeatherDisplay:10.37,2013-01-10 12:15:00,
2013-01-10 22:20:00,83.5,78.2,29.74,ESE,112,2.0,5.0,84,0.00,,,0.00,WeatherDisplay:10.37,2013-01-10 12:20:00,
2013-01-10 22:25:00,83.5,78.2,29.74,ESE,112,1.0,5.0,84,0.00,,,0.00,WeatherDisplay:10.37,2013-01-10 12:25:00,
2013-01-10 22:30:00,83.4,78.1,29.75,ESE,112,1.0,6.0,84,0.00,,,0.00,WeatherDisplay:10.37,2013-01-10 12:30:00,
2013-01-10 22:35:00,83.2,77.9,29.75,ESE,112,0.0,6.0,84,0.00,,,0.00,WeatherDisplay:10.37,2013-01-10 12:35:00,
2013-01-10 22:40:00,83.2,77.9,29.75,ESE,112,1.0,4.0,84,0.00,,,0.00,WeatherDisplay:10.37,2013-01-10 12:40:00,
2013-01-10 22:45:00,83.2,77.9,29.74,ESE,112,1.0,5.0,84,0.00,,,0.00,WeatherDisplay:10.37,2013-01-10 12:45:00,
2013-01-10 22:50:00,83.2,77.9,29.74,ESE,112,0.0,5.0,84,0.00,,,0.00,WeatherDisplay:10.37,2013-01-10 12:50:00,
2013-01-10 22:55:00,83.2,77.9,29.74,ESE,112,1.0,4.0,84,0.00,,,0.00,WeatherDisplay:10.37,2013-01-10 12:55:00,
2013-01-10 23:00:00,82.7,77.4,29.74,ESE,112,0.0,4.0,84,0.00,,,0.00,WeatherDisplay:10.37,2013-01-10 13:00:00,
2013-01-10 23:05:00,82.2,76.9,29.75,ESE,112,0.0,1.0,84,0.00,,,0.00,WeatherDisplay:10.37,2013-01-10 13:05:00,
2013-01-10 23:10:00,81.7,76.7,29.74,ESE,112,0.0,1.0,85,0.00,,,0.00,WeatherDisplay:10.37,2013-01-10 13:10:00,
2013-01-10 23:15:00,81.4,76.8,29.74,ESE,112,0.0,0.0,86,0.00,,,0.00,WeatherDisplay:10.37,2013-01-10 13:15:00,
2013-01-10 23:20:00,81.2,76.6,29.74,ESE,112,0.0,0.0,86,0.00,,,0.00,WeatherDisplay:10.37,2013-01-10 13:20:00,
2013-01-10 23:25:00,81.0,76.8,29.74,ESE,112,0.0,0.0,87,0.00,,,0.00,WeatherDisplay:10.37,2013-01-10 13:25:00,
2013-01-10 23:30:00,80.9,76.7,29.74,ESE,112,0.0,0.0,87,0.00,,,0.00,WeatherDisplay:10.37,2013-01-10 13:30:00,
2013-01-10 23:35:00,80.8,76.6,29.74,ESE,112,0.0,0.0,87,0.00,,,0.00,WeatherDisplay:10.37,2013-01-10 13:35:00,
2013-01-10 23:40:00,80.7,76.5,29.73,ESE,112,0.0,0.0,87,0.00,,,0.00,WeatherDisplay:10.37,2013-01-10 13:40:00,
2013-01-10 23:45:00,80.6,76.4,29.74,ESE,112,0.0,0.0,87,0.00,,,0.00,WeatherDisplay:10.37,2013-01-10 13:45:00,
2013-01-10 23:50:00,80.4,76.5,29.74,ESE,112,0.0,0.0,88,0.00,,,0.00,WeatherDisplay:10.37,2013-01-10 13:50:00,
2013-01-10 23:55:00,80.3,76.4,29.73,ESE,112,0.0,0.0,88,0.00,,,0.00,WeatherDisplay:10.37,2013-01-10 13:55:00,